THORAD AGENA D DEB, 4639

Orbit data source: Space-Track

THORAD AGENA D DEB, 4639 is space debris in SSO originally from a launch on Wed, 08 Apr 1970 UTC launched from the Air Force Western Test Range (AFWTR). Debris objects in space refer to the collection of defunct objects orbiting the Earth. Examples of debris include non-operational satellites, rocket bodies, and fragments generated from explosions, collisions, or faulty payload assembly.

Loading next visibility...
Identifier
4639, 1970-025X
Orbit
SSO
Country
Flag of USUS
Related business
Manufacturer
Unknown
Mission
Spacecraft
Bus & Motor
Unknown
Mass
Unknown
Launch date (UTC)
1970-04-08 (56 years ago)
Launch vehicle
Unknown
Launch site
Air Force Western Test Range (AFWTR)
Object type
Payload
Rocket body
Debris
Shape & HBR
Unknown shape, 0.1 m
Radar Cross Section
Medium (>0.1 m² and <1 m²)

Expand to show TLE details & history
Last TLE update: 12 hours ago

TLE from 12 hours ago
0 THORAD AGENA D DEB
1  4639U 70025X   26237.67121737  .00000069  00000-0  22209-3 0  9993
2  4639  99.8761 302.2230 0112536 268.3569 247.0296 13.33137935738537
Epoch: 2026-08-25T16:06Z
TLE epoch observation values (Epoch: 2026-08-25T16:06:33.180Z)
Latitude
25.41486°
Longitude
-88.62949°
Altitude
1,171.695 km
Speed
7.253 km/s
True Right ascension
08h 27m 46s
True Declination
25° 17' 21"
Sunlit
Object was in daylight at epoch
Visualization orbit readout
Latitude
Unknown
Longitude
Unknown
Altitude
Unknown
Speed
Unknown
Apparent Right ascension
Unknown
Apparent Declination
Unknown
Sunlit
N/A
Visualization observer readout
Local Sidereal Time
19:21:05
Azimuth
Unknown
Elevation
Unknown
Doppler factor
Unknown
Orbital elements
Apogee altitude
1,216.802 km
Perigee altitude
1,047.764 km
Semi-major axis
7,510.42 km
Eccentricity
0.01125
Inclination
99.8761°
RAAN
302.223°
Arg. of periapsis
268.3569°
True anomaly
245.84885°
Mean anomaly
247.0296°
Eccentric anomaly
246.43857°
Mean motion
3.33462 °/min
Orbital period
107.96 mins
BSTAR
0.00022209
Loading maneuver chart data...
Computing Atmospheric mass density...

Documentation

Showing up to 5 results
|